Location: *
(46.1866°S, 178.5290°W)
Time: 05:10:48
(UTC+00:00)

CZ-4B R/B - Pass Details

Date: 24 September 2021
Orbit: 809 x 881 km, 99.1° (Epoch: 17 October)

Event Time Altitude Azimuth Distance (km) Brightness Sun altitude
Rises 07:48:11 0° 172° (S) 3,378 6.5 -20.1°
Reaches altitude 10° 07:50:39 10° 178° (S) 2,436 5.9 -20.5°
Maximum altitude 07:55:39 41° 246° (WSW) 1,187 4.5 -21.3°
Drops below altitude 10° 08:00:35 10° 314° (NW) 2,411 5.8 -22.1°
Sets 08:03:02 0° 321° (NW) 3,340 6.5 -22.4°
